Temp
3 2 1 2 2 2 1 -2 -1 2 4 3 3 2 3 3 2 0 0 0 1 1 2 2 2 3 3 4 6 8 9 10 11 9 9 15 15 15 15 15 14 14 14 13
2 1 3 3 3 3 2 1 -0 2 4 3 2 1 2 2 1 1 0 0 1 1 1 2 2 2 2 3 3 5 8 9 10 9 9 15 15 15 15 15 14 14 14 13
-1 3 3 4 3 3 2 1 0 1 3 1 0 -1 1 1 1 1 0 1 1 1 0 1 1 1 2 2 1 3 6 8 9 10 8 14 14 14 15 14 14 14 13 12
1 2 3 3 3 3 1 2 2 2 -1 -5 0 -3 -1 -0 0 -0 -0 0 0 0 0 0 1 1 1 2 2 1 3 6 8 9 8 13 14 15 15 14 14 13 13 13
0 1 1 2 3 3 1 2 2 1 -5 -6 -2 -5 -2 -1 -1 -1 -0 0 -0 -0 -0 -0 -0 0 0 1 1 1 2 6 7 9 7 7 14 15 15 14 14 13 13 13
-0 1 2 2 3 3 2 1 -0 -1 -4 -6 -5 -5 -2 -2 -2 -1 -1 -1 -0 -1 -1 -1 -1 -0 -0 0 1 1 3 7 8 10 9 10 8 15 15 14 14 13 13 12
-1 1 1 2 -0 1 -0 -4 -7 -5 -6 -4 -1 -1 -3 -2 -1 -1 -1 -1 -1 -1 -1 -1 -1 -1 -0 0 1 1 2 6 8 10 9 11 9 14 14 14 14 13 13 12
-4 -2 0 2 -4 -4 -1 -6 -5 -4 -1 -0 0 -4 -2 -1 0 0 -0 -1 -1 -2 -2 -2 -1 -1 -0 0 1 1 2 5 9 10 13 12 10 14 14 14 14 13 13 12
-6 -2 1 2 2 -3 -2 -4 -1 -4 -4 -4 -2 -3 -4 -1 -0 -1 -2 -2 -3 -2 -2 -2 -1 -1 -0 1 1 2 3 5 8 10 13 12 11 13 15 14 13 13 13 12
-4 -5 1 1 1 -0 -2 -2 -4 -7 -4 -3 -0 -2 -3 -3 -2 -2 -3 -3 -3 -3 -3 -2 -1 -1 -0 1 3 3 4 6 9 12 13 12 12 12 15 14 13 13 13 12
-9 -5 -2 -0 -3 -5 -2 -6 -4 -4 -3 -2 -2 -0 -4 -1 -2 -4 -4 -4 -4 -4 -3 -3 -2 -1 -0 2 3 3 5 7 10 13 13 12 12 13 14 13 13 12 12 11
-4 -7 -6 -3 -5 -5 -2 -4 -6 -3 -2 -2 -3 -2 -1 -0 -2 -4 -5 -4 -4 -3 -3 -3 -2 -1 1 3 3 3 5 8 11 13 12 12 13 13 13 13 13 12 11 11
-4 -8 -6 -5 -5 -3 -4 -3 -4 -4 -3 -3 -3 -4 1 -2 -3 -4 -5 -5 -4 -4 -4 -3 -2 -1 1 3 5 4 8 10 12 12 13 13 13 13 12 12 12 11 11 11
-1 -8 -6 -6 -4 -3 -2 -2 -4 -4 -4 -3 -4 -3 -3 -4 -4 -5 -5 -4 -4 -4 -4 -4 -3 -2 1 3 6 8 10 11 13 13 13 13 13 12 12 12 12 11 11 11
-5 -5 -3 -2 -2 -3 -5 -4 -5 -5 -4 -5 -3 -5 -4 -4 -5 -5 -5 -4 -4 -4 -4 -4 -3 -2 -0 2 5 10 11 13 13 13 13 12 12 12 12 11 11 11 10 9
-3 -4 -2 -4 -3 -8 -5 -4 -4 -4 -5 -5 -6 -6 -4 -5 -5 -5 -5 -4 -5 -5 -4 -4 -3 -2 -1 1 2 6 12 12 15 14 12 12 12 12 12 11 11 10 10 9
-5 -5 -5 -5 -2 -3 -4 -9 -5 -5 -4 -5 -6 -6 -5 -6 -6 -5 -5 -5 -5 -5 -5 -4 -4 -3 -2 -0 1 3 13 13 14 12 12 12 12 11 11 11 11 10 9 9
-4 -5 -5 -5 -3 -6 -6 -7 -7 -7 -5 -7 -6 -6 -6 -6 -6 -5 -4 -5 -5 -5 -5 -4 -4 -3 -2 0 1 5 12 12 12 11 11 11 11 11 11 11 11 10 10 9
-4 -4 -6 -6 -5 -4 -4 -6 -6 -8 -6 -7 -6 -7 -7 -6 -5 -2 -4 -5 -5 -5 -5 -4 -4 -3 -1 1 2 8 11 11 11 11 11 11 10 10 10 10 10 10 9 9
-2 -5 -6 -5 -6 -5 -8 -5 -4 -8 -8 -4 -7 -7 -7 -6 -6 -4 -5 -5 -5 -5 -5 -4 -4 -3 -0 0 6 12 11 11 11 10 10 10 10 10 10 9 9 9 8 8
-7 -9 -7 -6 -7 -5 -5 -5 -4 -6 -6 -7 -7 -8 -7 -7 -6 -5 -5 -5 -5 -5 -5 -4 -4 -3 -1 0 10 11 11 10 10 9 9 9 9 9 9 9 9 9 8 8
-9 -8 -7 -7 -10 -6 -6 -5 -6 -8 -7 -8 -8 -7 -7 -7 -6 -6 -6 -6 -6 -6 -5 -5 -5 -3 -2 -0 5 6 6 9 9 9 8 8 8 8 8 8 8 8 7 7
-8 -7 -7 -6 -4 -5 -6 -6 -6 -7 -9 -8 -8 -7 -7 -6 -6 -6 -6 -6 -6 -6 -5 -5 -5 -4 -2 -1 -0 2 4 8 8 8 8 8 8 8 8 8 7 7 6 6
-8 -11 -8 -6 -4 -5 -6 -6 -7 -8 -9 -8 -7 -8 -6 -7 -6 -6 -6 -6 -6 -6 -6 -6 -5 -4 -3 -2 -1 0 4 8 8 7 7 7 7 7 7 7 7 6 5 5
-8 -8 -7 -8 -7 -7 -6 -6 -9 -9 -8 -8 -8 -7 -7 -7 -7 -7 -7 -7 -7 -6 -6 -6 -6 -5 -4 -3 -1 0 2 5 6 6 6 6 5 6 5 5 5 6 5 7
-11 -9 -9 -7 -8 -9 -9 -9 -9 -9 -9 -8 -8 -7 -7 -8 -8 -8 -7 -7 -7 -7 -7 -7 -6 -5 -4 -3 -2 -0 1 3 4 3 3 4 4 4 5 5 4 4 5 6
Height
841 846 853 850 848 846 849 860 845 824 808 807 802 793 785 776 780 787 788 787 782 778 774 771 767 761 756 750 746 750 737 733 727 724 727 728 730 743 755 766 777 787 794 803
846 856 846 843 838 839 839 841 838 812 805 805 796 795 791 783 784 784 786 785 781 776 770 767 764 760 755 746 747 738 730 728 726 722 719 712 720 737 747 759 773 784 790 799
864 848 844 839 839 838 839 840 835 830 799 803 802 803 791 787 784 785 786 784 781 777 771 765 761 758 751 742 737 733 738 727 733 732 726 692 720 732 744 753 765 777 786 795
858 849 846 842 839 839 840 828 823 814 826 850 808 834 799 791 786 787 784 779 776 772 767 765 760 755 752 744 734 731 728 727 724 739 722 719 712 717 732 746 760 772 782 789
862 856 854 847 844 839 838 828 814 815 844 852 824 841 804 795 792 790 784 780 775 770 765 759 754 750 745 742 736 731 727 730 729 731 723 728 716 719 731 742 755 766 777 783
863 855 856 851 845 840 837 828 820 825 842 866 844 846 803 803 800 792 788 783 775 766 760 754 749 741 732 732 728 723 717 711 711 712 710 707 708 712 724 733 746 760 771 779
871 857 853 850 858 843 849 854 882 871 873 853 819 819 806 797 792 789 781 774 770 762 754 746 740 733 723 715 712 714 712 708 713 723 722 721 716 707 713 727 738 752 763 773
904 880 861 854 873 877 861 883 893 889 842 818 807 829 803 791 786 781 777 771 762 755 748 740 731 721 712 702 696 697 703 701 696 695 697 696 701 702 709 723 732 747 755 768
916 883 857 856 854 870 865 883 864 877 857 859 820 812 802 789 785 784 777 767 760 749 738 729 720 710 701 695 692 690 691 690 690 697 701 700 699 700 701 715 730 741 750 764
904 905 860 856 857 862 870 869 879 896 867 851 804 811 808 798 782 780 770 764 752 740 729 717 709 699 690 685 680 681 685 690 689 687 684 691 693 698 699 713 724 735 749 764
917 908 878 864 876 888 872 891 880 882 863 847 825 794 807 790 786 780 771 761 749 737 723 711 698 689 681 673 672 673 672 674 677 681 689 696 697 697 700 709 723 731 746 761
897 911 908 879 878 877 870 878 887 872 853 848 841 809 789 787 788 784 772 757 744 730 718 704 692 680 670 661 658 661 665 665 666 675 687 686 692 699 698 709 719 731 737 756
897 918 911 895 885 875 877 871 876 872 858 850 846 819 783 791 788 780 769 752 737 724 709 697 685 673 661 655 650 651 657 661 667 674 678 688 694 696 699 703 717 729 739 749
886 915 911 914 886 878 869 860 873 872 864 848 840 812 798 793 783 770 756 746 733 722 709 694 681 671 661 647 639 644 646 654 661 673 683 685 689 694 700 706 715 724 731 733
898 904 887 876 865 866 873 872 874 872 862 858 826 828 810 801 790 776 759 743 729 715 702 690 677 664 655 647 643 640 644 649 656 666 674 681 688 690 696 703 711 722 731 742
893 896 880 877 863 883 870 868 863 859 857 850 842 833 818 803 790 771 759 742 728 713 699 685 674 664 654 648 645 639 638 643 651 665 674 680 685 691 697 703 711 721 726 736
902 898 892 885 862 862 873 892 868 858 848 849 842 830 812 798 785 767 755 743 730 716 703 686 677 665 657 648 639 636 637 644 654 661 671 677 681 693 698 702 709 717 726 735
899 899 897 889 872 900 882 875 871 864 842 851 842 830 821 811 788 769 760 750 729 712 698 684 675 664 654 644 641 638 639 643 658 667 675 681 688 694 699 703 709 717 724 732
895 896 903 906 893 871 866 871 866 872 843 845 838 827 817 804 784 761 761 745 733 720 706 692 673 661 652 642 638 637 639 647 655 668 675 680 683 691 698 703 710 718 723 733
889 897 904 895 906 886 886 865 855 859 861 834 838 825 814 800 776 756 755 746 733 717 706 688 675 664 649 640 628 631 643 649 661 668 673 680 686 695 701 706 711 719 726 733
911 916 910 899 903 877 873 865 851 871 864 845 843 831 817 809 811 781 768 754 741 728 710 693 680 668 655 642 634 640 648 653 664 673 676 683 690 698 703 709 715 721 728 736
924 922 914 906 927 894 876 866 877 878 863 855 844 833 820 809 795 783 770 754 742 714 702 692 688 681 664 659 646 649 652 658 671 676 680 689 695 699 705 709 716 721 731 737
917 910 913 901 884 874 872 871 870 871 867 856 847 834 826 808 795 785 772 757 744 734 716 703 686 678 667 662 660 661 664 669 676 681 689 696 698 707 712 715 721 725 732 738
906 910 906 895 874 874 873 871 871 870 866 856 847 837 827 815 802 790 779 765 757 738 726 710 700 686 678 670 672 673 672 677 682 688 696 700 704 710 715 718 723 726 735 742
905 902 898 895 881 876 869 870 870 866 862 855 844 839 829 821 806 797 786 774 763 757 743 732 720 711 701 689 684 684 686 686 690 697 701 705 711 715 719 723 728 732 737 742
904 899 904 892 885 886 878 873 869 867 861 854 846 835 829 825 814 804 792 785 771 760 749 739 723 717 712 705 698 693 698 697 699 703 709 711 716 719 723 727 735 741 744 746
Wind_Speed
6 5 4 5 4 6 7 3 14 19 17 14 23 22 19 13 6 6 6 6 9 12 15 19 24 26 26 26 26 28 28 27 34 25 23 50 45 43 42 44 42 45 47 42
5 2 3 7 6 4 7 14 11 14 10 21 14 19 6 6 3 5 6 9 11 15 16 20 25 26 25 28 26 28 26 30 29 28 37 49 41 40 43 44 43 46 50 43
2 4 9 6 3 13 11 10 10 17 30 7 7 5 4 3 3 7 7 8 11 13 17 17 21 27 28 29 29 28 24 24 27 22 34 24 40 37 38 43 47 46 48 45
3 5 9 5 7 11 10 7 21 22 13 3 5 4 6 3 5 9 13 17 17 18 18 16 20 27 26 29 31 31 30 30 24 22 26 24 32 34 40 42 45 45 46 46
6 6 8 5 9 12 7 17 22 13 0 4 4 2 6 4 5 12 16 19 18 19 19 21 20 28 30 29 29 29 31 28 26 21 21 22 32 40 39 42 46 46 47 47
5 4 2 3 14 9 11 13 10 2 3 3 4 3 5 2 3 9 15 18 18 22 21 20 28 31 33 28 28 28 26 28 25 21 22 26 18 42 40 41 46 48 45 45
8 4 4 3 6 5 9 9 5 7 4 5 3 8 9 4 3 13 24 24 23 22 21 21 21 22 30 31 30 24 23 23 22 25 25 23 28 41 45 45 47 45 43 42
5 8 5 7 3 4 4 4 3 5 7 16 17 6 6 3 11 22 28 26 26 24 21 22 21 25 30 31 30 25 24 23 21 20 25 22 17 39 45 46 47 47 45 46
4 6 3 6 3 5 5 4 2 5 7 3 4 7 4 9 18 25 26 27 26 25 25 24 22 27 29 27 27 27 25 22 24 30 27 18 24 25 48 47 45 46 47 48
4 6 3 4 1 3 4 3 4 2 6 8 7 7 5 14 28 29 28 28 28 27 26 23 21 23 28 27 25 25 27 26 28 29 24 22 19 22 44 45 43 46 45 45
3 3 7 4 2 3 2 3 2 2 4 4 7 5 5 17 28 28 27 27 27 26 23 24 21 26 26 26 23 24 25 25 27 32 27 19 28 27 40 41 43 47 42 42
3 3 4 7 6 4 2 3 3 2 5 5 5 7 5 23 25 23 26 27 26 22 24 21 20 21 20 18 24 25 25 25 28 33 25 18 24 28 38 42 40 44 44 43
3 1 5 9 5 4 2 3 2 8 7 6 4 8 15 25 25 26 26 28 25 25 25 21 19 16 14 16 18 24 29 30 37 32 19 25 31 33 31 41 44 48 48 43
3 2 7 6 10 9 13 9 4 5 4 9 12 22 26 29 32 32 31 27 23 24 22 21 17 14 13 17 7 24 27 30 32 33 27 27 32 37 36 38 40 46 47 51
3 3 5 12 18 14 8 3 6 5 12 6 14 23 26 30 30 29 27 25 27 27 24 21 17 16 14 14 9 22 25 26 29 28 27 25 31 34 37 39 41 40 45 49
2 4 10 11 1 4 4 1 13 9 8 13 13 21 25 27 25 27 26 24 28 27 26 24 21 18 16 14 12 4 21 25 29 29 26 29 28 30 34 41 41 42 42 40
2 3 5 5 7 3 3 4 11 16 15 8 7 22 28 31 31 32 23 28 28 26 25 24 20 19 16 18 17 12 26 32 30 25 24 27 31 31 29 35 35 37 39 42
4 3 1 4 7 4 5 4 8 10 14 2 16 26 25 24 29 27 18 23 27 29 29 24 19 19 23 21 15 10 29 31 28 26 25 27 32 31 30 33 37 37 39 40
6 2 3 2 2 6 2 6 12 7 20 5 23 27 27 25 20 12 25 28 25 25 23 22 33 29 24 21 17 10 27 28 27 26 27 28 29 27 28 28 29 29 35 35
3 2 3 3 3 4 5 10 15 3 5 21 25 25 29 27 22 22 32 30 28 32 35 33 39 31 25 26 2 27 26 28 24 25 27 29 30 29 27 28 29 30 30 31
4 3 1 3 4 6 2 14 11 6 7 25 21 24 24 19 15 26 27 25 32 32 36 42 37 27 33 29 19 21 24 23 24 24 28 29 29 30 31 31 32 33 31 31
3 1 3 2 3 6 4 3 3 5 12 16 20 18 24 24 25 25 25 26 26 31 40 45 35 26 33 28 23 23 18 28 28 28 28 26 29 28 28 30 28 33 33 30
3 5 2 5 5 1 2 5 3 5 12 11 18 21 20 24 25 26 25 26 24 30 35 42 39 34 35 37 29 24 20 30 31 31 29 28 29 28 29 32 30 29 29 27
3 3 2 3 2 4 8 2 2 7 9 15 16 19 19 21 23 23 22 22 20 35 35 44 41 34 35 40 34 30 21 31 33 31 29 29 28 26 25 26 28 30 27 25
4 3 3 6 6 8 1 5 7 11 12 14 20 18 17 18 21 20 20 21 28 30 33 34 33 32 34 37 38 35 20 23 32 30 28 27 26 26 25 22 21 25 24 30
4 5 3 4 2 4 8 7 12 8 14 15 15 18 23 20 18 24 17 28 30 31 35 35 38 37 37 35 38 42 27 19 24 26 24 25 26 26 25 23 18 12 16 21
Wind_Direction
350 62 39 348 297 251 268 264 290 291 294 301 302 293 311 320 60 60 11 348 342 333 331 330 327 320 317 309 307 280 285 286 291 283 302 183 170 169 167 166 168 170 170 164
18 75 354 311 324 317 309 300 297 287 297 318 307 297 279 78 110 54 3 347 338 329 334 329 324 321 313 307 303 306 288 284 285 298 313 184 164 166 165 163 167 172 171 166
145 294 326 338 327 351 326 299 302 293 317 305 335 307 268 305 57 18 359 340 331 324 324 324 317 315 310 305 303 301 289 286 276 291 305 171 164 160 165 168 169 173 170 166
277 333 344 326 358 348 315 328 305 308 330 288 61 285 283 293 303 354 347 346 334 329 324 316 308 305 301 297 296 292 290 281 277 269 276 223 174 170 172 169 169 169 169 168
273 318 350 317 343 339 282 313 295 304 38 33 338 21 268 342 334 345 342 333 322 319 316 311 306 300 295 290 284 281 279 270 257 257 267 285 184 178 175 168 167 168 172 170
252 294 247 317 327 327 323 309 322 27 65 11 245 87 272 294 267 325 329 325 319 317 313 306 303 300 294 286 276 278 276 273 266 268 269 294 290 182 174 169 166 170 171 169
323 318 314 20 334 338 2 352 350 1 0 243 212 330 252 202 307 341 333 333 323 316 311 307 305 297 291 284 275 267 264 265 248 240 243 273 228 195 171 171 169 169 168 167
16 333 15 358 154 237 345 83 114 301 317 299 302 230 267 158 348 344 339 320 319 314 311 306 301 296 288 283 278 268 253 255 253 254 255 299 265 188 171 172 171 174 169 169
342 268 298 327 353 113 321 25 254 266 261 292 259 285 334 341 347 334 322 320 317 314 313 308 305 295 285 277 258 250 243 243 240 243 236 288 241 220 173 169 173 172 170 175
276 302 281 325 34 43 100 306 357 8 314 314 280 298 259 334 336 331 325 323 318 316 314 311 307 297 288 276 260 243 236 224 221 229 238 283 224 248 173 171 170 171 174 176
146 156 295 355 22 225 355 349 315 227 252 279 303 292 205 345 335 324 322 317 315 313 314 311 305 299 287 272 251 238 236 217 220 214 227 251 209 218 175 168 168 167 169 174
228 185 290 266 294 191 132 220 197 308 306 269 264 273 215 342 328 324 318 315 313 311 314 311 310 302 293 275 242 221 222 199 200 209 229 236 206 211 171 172 165 163 166 172
262 318 315 340 354 347 230 193 219 281 264 255 288 270 318 325 324 324 321 317 317 321 320 318 318 315 309 298 215 207 200 188 192 202 232 203 189 187 173 162 161 162 163 164
31 161 175 214 250 268 295 302 322 283 291 301 267 289 314 327 329 328 324 321 322 324 323 322 319 316 316 318 258 196 179 181 184 197 197 176 177 179 174 165 164 163 165 166
92 250 231 258 274 274 262 193 311 289 299 271 293 304 315 326 323 320 316 317 328 329 329 330 331 332 330 337 316 183 180 172 178 178 167 170 167 161 160 159 166 163 166 169
26 274 318 301 279 189 182 213 344 325 287 281 280 292 324 317 319 321 324 329 333 332 333 334 337 332 333 332 323 243 176 160 164 166 167 163 157 166 168 164 164 166 162 164
297 313 327 274 316 319 353 237 339 306 306 289 305 322 326 328 329 325 328 335 333 333 335 333 337 332 323 319 324 301 163 148 154 146 154 156 157 167 169 165 162 164 164 167
287 298 187 284 344 9 248 235 261 285 298 230 330 326 323 323 318 310 339 335 332 336 338 335 334 328 323 327 311 271 144 130 139 143 148 155 157 162 163 164 166 167 164 167
213 297 312 333 267 276 7 335 323 354 309 352 336 327 325 326 312 310 346 339 336 331 332 330 333 327 324 324 303 173 126 128 127 143 148 147 146 151 155 161 162 166 163 167
115 56 143 347 315 273 245 310 311 119 282 353 338 325 327 336 346 333 338 337 336 335 339 339 339 330 349 336 336 133 134 128 138 140 141 143 142 145 144 145 143 147 151 153
329 333 129 279 268 288 300 312 322 47 285 326 324 319 323 331 321 312 326 332 334 334 340 346 350 352 355 347 118 117 126 117 121 130 131 137 143 145 147 145 147 147 147 149
203 65 305 316 345 322 356 352 43 245 301 307 314 319 320 321 324 327 332 335 342 338 348 353 351 348 3 11 65 75 65 114 126 121 119 128 138 137 143 140 138 142 146 141
330 183 216 185 240 4 327 241 238 292 296 307 315 316 320 322 329 331 335 337 341 343 343 351 355 354 8 21 37 52 52 113 118 119 122 129 132 141 148 144 141 135 139 136
286 179 226 4 267 304 307 272 304 313 299 312 314 315 321 324 327 331 335 337 346 347 352 346 351 357 8 11 28 41 79 123 129 123 127 133 136 138 144 148 153 144 144 140
207 140 240 262 297 313 231 317 333 320 316 321 320 319 324 329 330 333 334 339 340 347 348 349 350 0 4 9 23 38 57 119 123 126 126 129 133 137 135 132 147 155 163 169
182 205 161 257 262 221 278 308 319 322 322 320 318 328 329 334 330 335 334 339 339 345 348 356 353 359 3 11 21 31 46 88 116 115 122 126 130 128 132 130 114 119 147 178